When you browse on this site, cookies collect data to enhance your experience and personalize the content and advertising you see.
Visit our Privacy Policy to learn more. By continuing to use the site, you agree to this use of cookies and data.
  • In United Kingdom
  • List of Countries
  • For 7 days
  • Water Temperature
  • Satellite Maps
  • Weather Map
  • Weather Widgets
  • user-avatar
    Login

    Hourly Weather Malakoff

    Today, 16 February, Saturday

    Time Temperature Precipitation Wind Pressure Humidity
    00:00 +8°C° 0 mm 1 mps 764 mmHg 70%
    01:00 +7°C° 0 mm 1 mps 764 mmHg 71%
    02:00 +7°C° 0 mm 1 mps 763 mmHg 72%
    03:00 +7°C° 0 mm 1 mps 763 mmHg 73%
    04:00 +7°C° 0 mm 1 mps 763 mmHg 75%
    05:00 +5°C° 0 mm 2 mps 763 mmHg 76%
    06:00 +5°C° 0 mm 2 mps 763 mmHg 78%
    07:00 +6°C° 0 mm 2 mps 764 mmHg 75%
    08:00 +6°C° 0 mm 2 mps 764 mmHg 73%
    09:00 +7°C° 0 mm 2 mps 764 mmHg 70%
    10:00 +8°C° 0 mm 2 mps 764 mmHg 66%
    11:00 +10°C° 0 mm 2 mps 764 mmHg 62%
    12:00 +12°C° 0 mm 2 mps 764 mmHg 57%
    13:00 +13°C° 0 mm 2 mps 763 mmHg 57%
    14:00 +14°C° 0 mm 2 mps 763 mmHg 56%
    15:00 +14°C° 0 mm 2 mps 762 mmHg 56%
    16:00 +13°C° 0 mm 2 mps 762 mmHg 61%
    17:00 +12°C° 0 mm 2 mps 762 mmHg 66%
    18:00 +10°C° 0 mm 2 mps 762 mmHg 71%
    19:00 +9°C° 0 mm 2 mps 762 mmHg 72%
    20:00 +9°C° 0 mm 2 mps 762 mmHg 72%
    21:00 +8°C° 0 mm 2 mps 761 mmHg 73%
    22:00 +8°C° 0 mm 2 mps 761 mmHg 73%
    23:00 +8°C° 0 mm 2 mps 761 mmHg 73%

    Tomorrow, 17 February, Sunday

    Time Temperature Precipitation Wind Pressure Humidity
    00:00 +7°C° 0 mm 2 mps 761 mmHg 73%
    01:00 +7°C° 0 mm 2 mps 760 mmHg 72%
    02:00 +7°C° 0 mm 2 mps 760 mmHg 70%
    03:00 +7°C° 0 mm 2 mps 760 mmHg 69%
    04:00 +6°C° 0 mm 2 mps 759 mmHg 68%
    05:00 +5°C° 0 mm 3 mps 759 mmHg 67%
    06:00 +5°C° 0 mm 3 mps 759 mmHg 66%
    07:00 +7°C° 0 mm 3 mps 759 mmHg 61%
    08:00 +6°C° 0 mm 4 mps 759 mmHg 57%
    09:00 +7°C° 0 mm 4 mps 759 mmHg 52%
    10:00 +8°C° 0 mm 4 mps 759 mmHg 49%
    11:00 +11°C° 0 mm 4 mps 759 mmHg 46%
    12:00 +12°C° 0 mm 4 mps 759 mmHg 43%
    13:00 +13°C° 0 mm 4 mps 759 mmHg 43%
    14:00 +14°C° 0 mm 4 mps 758 mmHg 43%
    15:00 +14°C° 0 mm 4 mps 758 mmHg 43%
    16:00 +13°C° 0 mm 3 mps 758 mmHg 48%
    17:00 +13°C° 0 mm 2 mps 758 mmHg 53%
    18:00 +12°C° 0 mm 2 mps 758 mmHg 58%
    19:00 +10°C° 0 mm 2 mps 758 mmHg 61%
    20:00 +10°C° 0 mm 2 mps 758 mmHg 63%
    21:00 +9°C° 0 mm 2 mps 758 mmHg 66%
    22:00 +9°C° 0 mm 2 mps 758 mmHg 69%
    23:00 +8°C° 0 mm 2 mps 758 mmHg 71%

    Day after tomorrow, 18 February, Monday

    Time Temperature Precipitation Wind Pressure Humidity
    00:00 +8°C° 0 mm 2 mps 758 mmHg 74%
    01:00 +7°C° 0 mm 2 mps 758 mmHg 76%
    02:00 +7°C° 0 mm 2 mps 758 mmHg 78%
    03:00 +7°C° 0 mm 2 mps 758 mmHg 79%
    04:00 +6°C° 0 mm 2 mps 758 mmHg 81%
    05:00 +6°C° 0 mm 2 mps 758 mmHg 83%
    06:00 +6°C° 0 mm 2 mps 758 mmHg 85%
    07:00 +6°C° 0 mm 2 mps 758 mmHg 81%
    08:00 +7°C° 0 mm 2 mps 758 mmHg 77%
    09:00 +7°C° 0 mm 2 mps 758 mmHg 73%
    10:00 +9°C° 0 mm 3 mps 758 mmHg 68%
    11:00 +10°C° 0 mm 3 mps 758 mmHg 62%
    12:00 +11°C° 0 mm 3 mps 758 mmHg 57%
    13:00 +12°C° 0 mm 3 mps 757 mmHg 56%
    14:00 +12°C° 0 mm 3 mps 757 mmHg 56%
    15:00 +14°C° 0 mm 2 mps 757 mmHg 55%
    16:00 +13°C° 0 mm 2 mps 757 mmHg 60%
    17:00 +12°C° 0 mm 2 mps 757 mmHg 65%
    18:00 +10°C° 0 mm 2 mps 757 mmHg 70%
    19:00 +11°C° 0 mm 1 mps 758 mmHg 73%
    20:00 +10°C° 0 mm 1 mps 758 mmHg 75%
    21:00 +10°C° 0 mm 1 mps 758 mmHg 77%
    22:00 +10°C° 0 mm 1 mps 758 mmHg 78%
    23:00 +10°C° 0 mm 1 mps 758 mmHg 78%

    19 February, Tuesday

    Time Temperature Precipitation Wind Pressure Humidity
    00:00 +10°C° 0 mm 1 mps 758 mmHg 79%
    01:00 +9°C° 0 mm 1 mps 758 mmHg 81%
    02:00 +9°C° 0 mm 1 mps 758 mmHg 83%
    03:00 +9°C° 0 mm 1 mps 758 mmHg 85%
    04:00 +9°C° 0.1 mm 1 mps 758 mmHg 87%
    05:00 +9°C° 0.1 mm 1 mps 759 mmHg 89%
    06:00 +9°C° 0.1 mm 1 mps 759 mmHg 92%
    07:00 +9°C° 0 mm 1 mps 759 mmHg 89%
    08:00 +9°C° 0 mm 1 mps 760 mmHg 87%
    09:00 +10°C° 0 mm 1 mps 760 mmHg 84%
    10:00 +11°C° 0 mm 1 mps 760 mmHg 77%
    11:00 +11°C° 0 mm 1 mps 760 mmHg 70%
    12:00 +12°C° 0 mm 1 mps 760 mmHg 63%
    13:00 +13°C° 0 mm 1 mps 760 mmHg 61%
    14:00 +13°C° 0 mm 1 mps 760 mmHg 60%
    15:00 +13°C° 0 mm 1 mps 760 mmHg 58%
    16:00 +13°C° 0 mm 1 mps 760 mmHg 59%
    17:00 +12°C° 0 mm 1 mps 760 mmHg 60%
    18:00 +12°C° 0 mm 1 mps 761 mmHg 61%
    19:00 +11°C° 0 mm 1 mps 761 mmHg 64%
    20:00 +10°C° 0 mm 1 mps 761 mmHg 67%
    21:00 +10°C° 0 mm 1 mps 761 mmHg 69%
    22:00 +9°C° 0 mm 1 mps 761 mmHg 72%
    23:00 +9°C° 0 mm 1 mps 761 mmHg 76%

    20 February, Wednesday

    Time Temperature Precipitation Wind Pressure Humidity
    00:00 +8°C° 0 mm 1 mps 761 mmHg 79%
    01:00 +8°C° 0 mm 1 mps 761 mmHg 81%
    02:00 +8°C° 0 mm 1 mps 761 mmHg 82%
    03:00 +7°C° 0 mm 1 mps 761 mmHg 84%
    04:00 +7°C° 0 mm 1 mps 761 mmHg 85%
    05:00 +7°C° 0 mm 1 mps 761 mmHg 87%
    06:00 +7°C° 0 mm 1 mps 761 mmHg 88%
    07:00 +7°C° 0 mm 1 mps 762 mmHg 85%
    08:00 +7°C° 0 mm 2 mps 762 mmHg 83%
    09:00 +8°C° 0 mm 2 mps 762 mmHg 80%
    10:00 +9°C° 0 mm 2 mps 762 mmHg 75%
    11:00 +12°C° 0 mm 2 mps 762 mmHg 70%
    12:00 +13°C° 0 mm 2 mps 762 mmHg 65%
    13:00 +14°C° 0 mm 2 mps 762 mmHg 63%
    14:00 +14°C° 0 mm 2 mps 762 mmHg 61%
    15:00 +15°C° 0 mm 2 mps 762 mmHg 58%
    16:00 +14°C° 0 mm 2 mps 762 mmHg 63%
    17:00 +13°C° 0 mm 1 mps 762 mmHg 67%
    18:00 +12°C° 0 mm 1 mps 762 mmHg 71%
    19:00 +12°C° 0 mm 1 mps 762 mmHg 73%
    20:00 +11°C° 0 mm 1 mps 763 mmHg 75%
    21:00 +11°C° 0 mm 1 mps 763 mmHg 77%
    22:00 +10°C° 0 mm 1 mps 763 mmHg 79%
    23:00 +10°C° 0 mm 1 mps 763 mmHg 80%

    21 February, Thursday

    Time Temperature Precipitation Wind Pressure Humidity
    00:00 +9°C° 0 mm 1 mps 763 mmHg 81%
    01:00 +9°C° 0 mm 1 mps 763 mmHg 82%
    02:00 +9°C° 0 mm 1 mps 763 mmHg 83%
    03:00 +9°C° 0 mm 1 mps 763 mmHg 84%
    04:00 +8°C° 0 mm 1 mps 763 mmHg 84%
    05:00 +8°C° 0 mm 1 mps 763 mmHg 85%
    06:00 +8°C° 0 mm 1 mps 763 mmHg 86%
    07:00 +9°C° 0 mm 1 mps 763 mmHg 82%
    08:00 +9°C° 0 mm 1 mps 764 mmHg 79%
    09:00 +10°C° 0 mm 1 mps 764 mmHg 75%
    10:00 +11°C° 0 mm 1 mps 764 mmHg 69%
    11:00 +13°C° 0 mm 1 mps 764 mmHg 63%
    12:00 +14°C° 0 mm 1 mps 764 mmHg 57%
    13:00 +15°C° 0 mm 1 mps 764 mmHg 55%
    14:00 +15°C° 0 mm 1 mps 763 mmHg 53%
    15:00 +16°C° 0 mm 1 mps 763 mmHg 51%
    16:00 +15°C° 0 mm 1 mps 763 mmHg 55%
    17:00 +14°C° 0 mm 1 mps 763 mmHg 59%
    18:00 +13°C° 0 mm 1 mps 763 mmHg 63%
    19:00 +12°C° 0 mm 1 mps 763 mmHg 66%
    20:00 +11°C° 0 mm 1 mps 764 mmHg 68%
    21:00 +11°C° 0 mm 1 mps 764 mmHg 71%
    22:00 +11°C° 0 mm 1 mps 764 mmHg 73%
    23:00 +10°C° 0 mm 1 mps 764 mmHg 74%
    Show more